Terminal Aerodrome Forecast
Issued by NWS Wilmington, OH

Current Version | Previous Version | Graphics & Text | Print | Product List | Glossary On
Versions: 1 2 3 4 5 6 7 8 9 10 11 12 13 14 15 16 17 18 19 20 21 22 23 24 25
000
FTUS41 KILN 251700
TAFCVG
TAF
KCVG 251732Z 2518/2624 21011G21KT P6SM VCSH SCT035 BKN090 OVC150
      TEMPO 2518/2522 -SHRA FEW015 BKN035 OVC080
     FM252300 19008KT P6SM BKN060
     FM261300 20011KT P6SM SCT035
     FM261800 21012KT P6SM VCTS SCT035CB BKN110=

USA.gov is the U.S. government's official web portal to all federal, state and local government web resources and services.